Time,TemperatureF,DewpointF,PressureIn,WindDirection,WindDirectionDegrees,WindSpeedMPH,WindSpeedGustMPH,Humidity,HourlyPrecipIn,Conditions,Clouds,dailyrainin,SoftwareType,DateUTC
2013-08-20 00:00:00,75.5,52.3,28.26,East,84,0.0,1.6,92,0.00,,,-99.99,HOBO +U30 +Weather +,2013-08-20 07:00:00,
2013-08-20 00:15:00,75.4,51.9,28.26,East,84,0.0,0.9,92,0.00,,,-99.99,HOBO +U30 +Weather +,2013-08-20 07:15:00,
2013-08-20 00:30:00,75.3,51.7,28.26,East,84,0.0,25.7,93,0.00,,,-99.99,HOBO +U30 +Weather +,2013-08-20 07:30:00,
2013-08-20 00:45:00,75.1,51.7,28.26,East,84,0.9,21.5,93,0.00,,,-99.99,HOBO +U30 +Weather +,2013-08-20 07:45:00,
2013-08-20 01:00:00,74.9,51.5,28.27,East,84,0.0,0.9,93,0.00,,,-99.99,HOBO +U30 +Weather +,2013-08-20 08:00:00,
2013-08-20 01:15:00,74.8,51.9,28.26,East,84,0.4,27.1,93,0.00,,,-99.99,HOBO +U30 +Weather +,2013-08-20 08:15:00,
2013-08-20 01:30:00,74.6,51.0,28.26,East,84,0.0,26.6,92,0.00,,,-99.99,HOBO +U30 +Weather +,2013-08-20 08:30:00,
2013-08-20 01:45:00,74.4,51.2,28.27,East,84,0.0,21.9,93,0.00,,,-99.99,HOBO +U30 +Weather +,2013-08-20 08:45:00,
2013-08-20 02:00:00,74.2,51.6,28.26,East,84,0.0,26.2,94,0.00,,,-99.99,HOBO +U30 +Weather +,2013-08-20 09:00:00,
2013-08-20 02:15:00,74.1,51.8,28.26,East,84,0.9,23.3,94,0.00,,,-99.99,HOBO +U30 +Weather +,2013-08-20 09:15:00,
2013-08-20 02:30:00,73.9,51.9,28.26,East,84,0.4,3.8,93,0.00,,,-99.99,HOBO +U30 +Weather +,2013-08-20 09:30:00,
2013-08-20 02:45:00,73.8,51.8,28.26,East,84,0.0,2.9,93,0.00,,,-99.99,HOBO +U30 +Weather +,2013-08-20 09:45:00,
2013-08-20 03:00:00,73.7,51.1,28.26,East,84,0.0,0.0,93,0.00,,,-99.99,HOBO +U30 +Weather +,2013-08-20 10:00:00,
2013-08-20 03:15:00,73.5,51.0,28.26,East,84,0.0,0.9,93,0.00,,,-99.99,HOBO +U30 +Weather +,2013-08-20 10:15:00,
2013-08-20 03:30:00,73.3,51.5,28.26,East,84,0.0,0.0,94,0.00,,,-99.99,HOBO +U30 +Weather +,2013-08-20 10:30:00,
2013-08-20 03:45:00,73.2,51.1,28.27,East,84,0.0,0.0,94,0.00,,,-99.99,HOBO +U30 +Weather +,2013-08-20 10:45:00,
2013-08-20 04:00:00,73.1,51.2,28.27,East,84,0.0,0.0,95,0.00,,,-99.99,HOBO +U30 +Weather +,2013-08-20 11:00:00,
2013-08-20 04:15:00,72.9,51.5,28.27,East,84,0.4,2.5,95,0.00,,,-99.99,HOBO +U30 +Weather +,2013-08-20 11:15:00,
2013-08-20 04:30:00,72.8,52.2,28.26,East,84,0.0,25.3,95,0.00,,,-99.99,HOBO +U30 +Weather +,2013-08-20 11:30:00,
2013-08-20 04:45:00,72.6,52.5,28.27,East,84,0.0,25.3,94,0.00,,,-99.99,HOBO +U30 +Weather +,2013-08-20 11:45:00,
2013-08-20 05:00:00,72.5,52.5,28.27,East,84,0.0,25.7,93,0.00,,,-99.99,HOBO +U30 +Weather +,2013-08-20 12:00:00,
2013-08-20 05:15:00,72.4,52.6,28.27,East,84,0.4,2.5,93,0.00,,,-99.99,HOBO +U30 +Weather +,2013-08-20 12:15:00,
2013-08-20 05:30:00,72.3,52.2,28.28,East,101,0.4,2.5,93,0.00,,,-99.99,HOBO +U30 +Weather +,2013-08-20 12:30:00,
2013-08-20 05:45:00,72.2,53.0,28.28,SSW,194,0.4,26.6,94,0.00,,,-99.99,HOBO +U30 +Weather +,2013-08-20 12:45:00,
2013-08-20 06:00:00,72.1,53.4,28.28,SSW,194,0.0,0.0,94,0.00,,,-99.99,HOBO +U30 +Weather +,2013-08-20 13:00:00,
2013-08-20 06:15:00,71.9,54.2,28.28,SW,226,0.4,2.9,94,0.00,,,-99.99,HOBO +U30 +Weather +,2013-08-20 13:15:00,
2013-08-20 06:30:00,71.8,54.2,28.27,North,3,0.4,24.8,94,0.00,,,-99.99,HOBO +U30 +Weather +,2013-08-20 13:30:00,
2013-08-20 06:45:00,71.7,54.3,28.28,NE,37,0.4,23.7,95,0.00,,,-99.99,HOBO +U30 +Weather +,2013-08-20 13:45:00,
2013-08-20 07:00:00,71.7,54.3,28.28,NNW,343,0.4,2.5,95,0.00,,,-99.99,HOBO +U30 +Weather +,2013-08-20 14:00:00,
2013-08-20 07:15:00,71.6,54.3,28.28,West,279,1.3,4.3,94,0.00,,,-99.99,HOBO +U30 +Weather +,2013-08-20 14:15:00,
2013-08-20 07:30:00,71.5,54.2,28.28,WSW,256,2.5,19.0,93,0.00,,,-99.99,HOBO +U30 +Weather +,2013-08-20 14:30:00,
2013-08-20 07:45:00,71.4,54.1,28.28,WSW,258,2.9,26.2,93,0.00,,,-99.99,HOBO +U30 +Weather +,2013-08-20 14:45:00,
2013-08-20 08:00:00,71.3,53.8,28.28,WSW,243,2.5,24.2,92,0.00,,,-99.99,HOBO +U30 +Weather +,2013-08-20 15:00:00,
2013-08-20 08:15:00,71.2,54.2,28.29,WSW,254,2.5,22.4,91,0.00,,,-99.99,HOBO +U30 +Weather +,2013-08-20 15:15:00,
2013-08-20 08:30:00,71.2,54.5,28.29,West,274,1.6,24.4,90,0.00,,,-99.99,HOBO +U30 +Weather +,2013-08-20 15:30:00,
2013-08-20 08:45:00,71.1,54.5,28.29,WNW,296,1.6,4.3,90,0.00,,,-99.99,HOBO +U30 +Weather +,2013-08-20 15:45:00,
2013-08-20 09:00:00,71.0,54.8,28.29,WNW,295,1.3,3.4,87,0.00,,,-99.99,HOBO +U30 +Weather +,2013-08-20 16:00:00,
2013-08-20 09:15:00,70.9,54.4,28.29,WNW,289,2.5,5.4,86,0.00,,,-99.99,HOBO +U30 +Weather +,2013-08-20 16:15:00,
2013-08-20 09:30:00,70.9,54.3,28.28,WNW,289,2.9,28.6,85,0.00,,,-99.99,HOBO +U30 +Weather +,2013-08-20 16:30:00,
2013-08-20 09:45:00,70.8,54.7,28.28,WNW,284,1.6,3.8,83,0.00,,,-99.99,HOBO +U30 +Weather +,2013-08-20 16:45:00,
2013-08-20 10:00:00,70.8,55.0,28.28,SW,225,2.5,26.2,81,0.00,,,-99.99,HOBO +U30 +Weather +,2013-08-20 17:00:00,
2013-08-20 10:15:00,70.8,55.1,28.28,West,265,3.4,7.2,81,0.00,,,-99.99,HOBO +U30 +Weather +,2013-08-20 17:15:00,
2013-08-20 10:30:00,70.8,55.1,28.28,WSW,257,2.9,25.3,79,0.00,,,-99.99,HOBO +U30 +Weather +,2013-08-20 17:30:00,
2013-08-20 10:45:00,70.7,55.4,28.28,SW,232,3.4,24.8,74,0.00,,,-99.99,HOBO +U30 +Weather +,2013-08-20 17:45:00,
2013-08-20 11:00:00,70.7,55.5,28.28,SW,220,2.9,8.3,68,0.00,,,-99.99,HOBO +U30 +Weather +,2013-08-20 18:00:00,
2013-08-20 11:15:00,70.8,55.3,28.28,WSW,257,4.3,10.1,65,0.00,,,-99.99,HOBO +U30 +Weather +,2013-08-20 18:15:00,
2013-08-20 11:30:00,70.8,56.4,28.28,West,265,4.9,23.7,64,0.00,,,-99.99,HOBO +U30 +Weather +,2013-08-20 18:30:00,
2013-08-20 11:45:00,70.8,54.8,28.27,West,264,5.8,21.5,60,0.00,,,-99.99,HOBO +U30 +Weather +,2013-08-20 18:45:00,
2013-08-20 12:00:00,70.9,54.8,28.26,WSW,253,6.7,25.3,59,0.00,,,-99.99,HOBO +U30 +Weather +,2013-08-20 19:00:00,
2013-08-20 12:15:00,71.0,56.2,28.26,WNW,299,4.5,29.1,54,0.00,,,-99.99,HOBO +U30 +Weather +,2013-08-20 19:15:00,
2013-08-20 12:30:00,71.1,54.6,28.26,WNW,298,5.8,26.6,54,0.00,,,-99.99,HOBO +U30 +Weather +,2013-08-20 19:30:00,
2013-08-20 12:45:00,71.2,55.0,28.26,West,277,4.9,24.4,52,0.00,,,-99.99,HOBO +U30 +Weather +,2013-08-20 19:45:00,
2013-08-20 13:00:00,71.4,54.5,28.25,West,265,6.7,14.5,53,0.00,,,-99.99,HOBO +U30 +Weather +,2013-08-20 20:00:00,
2013-08-20 13:15:00,71.6,54.3,28.25,WSW,258,7.8,16.1,53,0.00,,,-99.99,HOBO +U30 +Weather +,2013-08-20 20:15:00,
2013-08-20 13:30:00,71.7,54.7,28.25,WSW,258,7.2,13.6,52,0.00,,,-99.99,HOBO +U30 +Weather +,2013-08-20 20:30:00,
2013-08-20 13:45:00,72.0,53.9,28.25,West,274,7.2,17.9,51,0.00,,,-99.99,HOBO +U30 +Weather +,2013-08-20 20:45:00,
2013-08-20 14:00:00,72.2,54.6,28.25,West,267,6.7,26.2,50,0.00,,,-99.99,HOBO +U30 +Weather +,2013-08-20 21:00:00,
2013-08-20 14:15:00,72.4,54.2,28.25,West,263,7.2,18.6,50,0.00,,,-99.99,HOBO +U30 +Weather +,2013-08-20 21:15:00,
2013-08-20 14:30:00,72.7,54.4,28.24,West,268,7.4,19.0,50,0.00,,,-99.99,HOBO +U30 +Weather +,2013-08-20 21:30:00,
2013-08-20 14:45:00,72.9,54.9,28.24,West,260,6.7,24.2,49,0.00,,,-99.99,HOBO +U30 +Weather +,2013-08-20 21:45:00,
2013-08-20 15:00:00,73.2,54.7,28.24,West,281,6.7,26.2,50,0.00,,,-99.99,HOBO +U30 +Weather +,2013-08-20 22:00:00,
2013-08-20 15:15:00,73.5,54.9,28.24,West,281,6.3,17.9,49,0.00,,,-99.99,HOBO +U30 +Weather +,2013-08-20 22:15:00,
2013-08-20 15:30:00,73.7,55.0,28.23,WNW,302,4.5,26.6,48,0.00,,,-99.99,HOBO +U30 +Weather +,2013-08-20 22:30:00,
2013-08-20 15:45:00,74.0,55.8,28.23,WNW,291,5.8,24.2,48,0.00,,,-99.99,HOBO +U30 +Weather +,2013-08-20 22:45:00,
2013-08-20 16:00:00,74.3,55.1,28.23,WNW,293,4.5,26.6,48,0.00,,,-99.99,HOBO +U30 +Weather +,2013-08-20 23:00:00,
2013-08-20 16:15:00,74.6,55.5,28.23,WNW,289,5.4,26.6,49,0.00,,,-99.99,HOBO +U30 +Weather +,2013-08-20 23:15:00,
2013-08-20 16:30:00,74.9,54.7,28.22,WNW,288,5.8,18.6,50,0.00,,,-99.99,HOBO +U30 +Weather +,2013-08-20 23:30:00,
2013-08-20 16:45:00,75.2,55.4,28.22,WNW,286,5.4,15.4,51,0.00,,,-99.99,HOBO +U30 +Weather +,2013-08-20 23:45:00,
2013-08-20 17:00:00,75.4,55.8,28.22,WNW,282,4.9,29.1,50,0.00,,,-99.99,HOBO +U30 +Weather +,2013-08-21 00:00:00,
2013-08-20 17:15:00,75.6,55.3,28.22,WNW,285,5.4,17.0,50,0.00,,,-99.99,HOBO +U30 +Weather +,2013-08-21 00:15:00,
2013-08-20 17:30:00,75.8,54.6,28.22,WNW,291,4.5,27.7,51,0.00,,,-99.99,HOBO +U30 +Weather +,2013-08-21 00:30:00,
2013-08-20 17:45:00,76.1,54.9,28.22,WNW,299,4.5,25.7,51,0.00,,,-99.99,HOBO +U30 +Weather +,2013-08-21 00:45:00,
2013-08-20 18:00:00,76.2,54.7,28.22,WNW,300,3.4,22.8,51,0.00,,,-99.99,HOBO +U30 +Weather +,2013-08-21 01:00:00,
2013-08-20 18:15:00,76.4,55.1,28.22,NW,310,3.8,24.2,52,0.00,,,-99.99,HOBO +U30 +Weather +,2013-08-21 01:15:00,
2013-08-20 18:30:00,76.6,55.0,28.21,NW,317,2.9,8.3,53,0.00,,,-99.99,HOBO +U30 +Weather +,2013-08-21 01:30:00,
2013-08-20 18:45:00,76.7,54.6,28.21,NW,317,2.9,9.2,54,0.00,,,-99.99,HOBO +U30 +Weather +,2013-08-21 01:45:00,
2013-08-20 19:00:00,76.8,54.3,28.21,NNW,337,2.9,25.7,55,0.00,,,-99.99,HOBO +U30 +Weather +,2013-08-21 02:00:00,
2013-08-20 19:15:00,76.9,53.8,28.21,NW,323,2.9,7.2,59,0.00,,,-99.99,HOBO +U30 +Weather +,2013-08-21 02:15:00,
2013-08-20 19:30:00,76.9,53.8,28.21,NW,321,2.0,23.3,62,0.00,,,-99.99,HOBO +U30 +Weather +,2013-08-21 02:30:00,
2013-08-20 19:45:00,76.9,53.7,28.21,NNW,334,1.6,21.5,66,0.00,,,-99.99,HOBO +U30 +Weather +,2013-08-21 02:45:00,
2013-08-20 20:00:00,77.0,53.4,28.21,NW,316,2.5,21.3,67,0.00,,,-99.99,HOBO +U30 +Weather +,2013-08-21 03:00:00,
2013-08-20 20:15:00,76.9,53.4,28.21,WSW,254,2.9,22.8,71,0.00,,,-99.99,HOBO +U30 +Weather +,2013-08-21 03:15:00,
2013-08-20 20:30:00,76.9,52.9,28.22,West,261,3.8,19.0,72,0.00,,,-99.99,HOBO +U30 +Weather +,2013-08-21 03:30:00,
2013-08-20 20:45:00,76.9,52.8,28.22,NE,45,2.0,25.7,77,0.00,,,-99.99,HOBO +U30 +Weather +,2013-08-21 03:45:00,
2013-08-20 21:00:00,76.8,52.6,28.23,East,80,1.3,2.5,80,0.00,,,-99.99,HOBO +U30 +Weather +,2013-08-21 04:00:00,
2013-08-20 21:15:00,76.7,52.5,28.22,East,80,1.3,25.3,83,0.00,,,-99.99,HOBO +U30 +Weather +,2013-08-21 04:15:00,
2013-08-20 21:30:00,76.6,52.2,28.23,East,80,0.9,2.0,85,0.00,,,-99.99,HOBO +U30 +Weather +,2013-08-21 04:30:00,
2013-08-20 21:45:00,76.6,52.0,28.23,East,80,0.4,2.0,86,0.00,,,-99.99,HOBO +U30 +Weather +,2013-08-21 04:45:00,
2013-08-20 22:00:00,76.4,51.6,28.23,East,86,0.9,25.3,85,0.00,,,-99.99,HOBO +U30 +Weather +,2013-08-21 05:00:00,
2013-08-20 22:15:00,76.3,51.3,28.24,ESE,122,0.0,25.7,88,0.00,,,-99.99,HOBO +U30 +Weather +,2013-08-21 05:15:00,
2013-08-20 22:30:00,76.2,51.3,28.23,ESE,122,0.9,25.3,88,0.00,,,-99.99,HOBO +U30 +Weather +,2013-08-21 05:30:00,
2013-08-20 22:45:00,76.0,51.1,28.24,ESE,122,1.3,4.3,90,0.00,,,-99.99,HOBO +U30 +Weather +,2013-08-21 05:45:00,
2013-08-20 23:00:00,75.8,50.9,28.24,ESE,122,0.9,3.4,89,0.00,,,-99.99,HOBO +U30 +Weather +,2013-08-21 06:00:00,
2013-08-20 23:15:00,75.7,50.1,28.24,SE,128,0.0,24.8,90,0.00,,,-99.99,HOBO +U30 +Weather +,2013-08-21 06:15:00,
2013-08-20 23:30:00,75.5,50.0,28.24,SE,128,0.0,25.7,91,0.00,,,-99.99,HOBO +U30 +Weather +,2013-08-21 06:30:00,
2013-08-20 23:45:00,75.4,50.0,28.24,SE,128,0.0,21.9,91,0.00,,,-99.99,HOBO +U30 +Weather +,2013-08-21 06:45:00,